TimeCST,TemperatureF,Dew PointF,Humidity,Sea Level PressureIn,VisibilityMPH,Wind Direction,Wind SpeedMPH,Gust SpeedMPH,PrecipitationIn,Events,Conditions,WindDirDegrees,DateUTC
12:56 AM,27.1,19.0,72,30.22,10.0,Calm,Calm,-,N/A,,Clear,0,2013-01-21 06:56:00
1:56 AM,27.1,19.0,72,30.24,10.0,NNW,4.6,-,N/A,,Clear,330,2013-01-21 07:56:00
2:56 AM,28.0,19.0,69,30.24,10.0,NNW,8.1,-,N/A,,Clear,330,2013-01-21 08:56:00
3:56 AM,27.1,20.1,75,30.25,10.0,NW,9.2,-,N/A,,Clear,320,2013-01-21 09:56:00
4:56 AM,27.1,17.1,66,30.25,10.0,NW,10.4,-,N/A,,Partly Cloudy,310,2013-01-21 10:56:00
6:56 AM,24.1,18.1,78,30.28,10.0,NW,8.1,-,N/A,,Scattered Clouds,310,2013-01-21 12:56:00
7:56 AM,25.2,15.1,66,30.30,10.0,NW,18.4,26.5,N/A,,Scattered Clouds,310,2013-01-21 13:56:00
8:56 AM,27.1,15.1,60,30.31,10.0,WNW,12.7,19.6,N/A,,Clear,300,2013-01-21 14:56:00
9:56 AM,29.1,14.0,53,30.31,10.0,WNW,16.1,25.3,N/A,,Partly Cloudy,290,2013-01-21 15:56:00
10:56 AM,30.0,11.1,45,30.30,10.0,West,19.6,-,N/A,,Partly Cloudy,280,2013-01-21 16:56:00
11:56 AM,31.1,7.2,37,30.28,10.0,WNW,21.9,28.8,N/A,,Clear,300,2013-01-21 17:56:00
12:56 PM,31.1,8.1,38,30.27,10.0,NW,15.0,23.0,N/A,,Clear,310,2013-01-21 18:56:00
2:56 PM,30.0,4.1,33,30.28,10.0,NW,18.4,-,N/A,,Clear,320,2013-01-21 20:56:00
3:56 PM,28.0,5.0,38,30.30,10.0,NW,17.3,-,N/A,,Partly Cloudy,310,2013-01-21 21:56:00
4:56 PM,25.2,5.0,42,30.31,10.0,WNW,15.0,-,N/A,,Clear,300,2013-01-21 22:56:00
5:56 PM,27.1,9.1,47,30.32,10.0,NW,12.7,-,N/A,,Clear,320,2013-01-21 23:56:00
6:56 PM,26.1,11.1,53,30.34,10.0,NNW,10.4,-,N/A,,Mostly Cloudy,330,2013-01-22 00:56:00
7:56 PM,22.1,8.1,55,30.35,10.0,NNW,10.4,-,N/A,,Partly Cloudy,330,2013-01-22 01:56:00
8:56 PM,22.1,7.2,53,30.35,10.0,NNW,9.2,-,N/A,,Overcast,340,2013-01-22 02:56:00
9:56 PM,21.0,4.1,48,30.35,10.0,NNW,10.4,-,N/A,,Scattered Clouds,340,2013-01-22 03:56:00
10:56 PM,20.1,4.1,50,30.37,10.0,NNW,11.5,-,N/A,,Clear,340,2013-01-22 04:56:00
11:56 PM,19.0,1.0,46,30.37,10.0,NNW,12.7,-,N/A,,Clear,330,2013-01-22 05:56:00